Time,TemperatureF,DewpointF,PressureIn,WindDirection,WindDirectionDegrees,WindSpeedMPH,WindSpeedGustMPH,Humidity,HourlyPrecipIn,Conditions,Clouds,dailyrainin,SoftwareType,DateUTC
2013-10-15 00:07:00,54.0,52.0,30.16,NE,43,0.0,1.0,93,0.00,,,0.00,weatherlink.com 1.10,2013-10-15 04:07:00,
2013-10-15 00:22:00,53.9,52.0,30.16,NE,43,0.0,1.0,93,0.00,,,0.00,weatherlink.com 1.10,2013-10-15 04:22:00,
2013-10-15 00:37:00,53.5,52.0,30.15,NE,43,0.0,1.0,94,0.00,,,0.00,weatherlink.com 1.10,2013-10-15 04:37:00,
2013-10-15 00:52:00,53.2,52.0,30.15,NE,43,1.0,2.0,94,0.00,,,0.00,weatherlink.com 1.10,2013-10-15 04:52:00,
2013-10-15 01:07:00,52.9,51.0,30.16,NE,43,0.0,1.0,94,0.00,,,0.00,weatherlink.com 1.10,2013-10-15 05:07:00,
2013-10-15 01:22:00,52.8,51.0,30.16,NE,43,0.0,0.0,94,0.00,,,0.00,weatherlink.com 1.10,2013-10-15 05:22:00,
2013-10-15 01:37:00,52.8,51.0,30.15,NE,43,0.0,1.0,94,0.00,,,0.00,weatherlink.com 1.10,2013-10-15 05:37:00,
2013-10-15 01:52:00,52.8,52.0,30.15,NE,43,0.0,0.0,95,0.00,,,0.00,weatherlink.com 1.10,2013-10-15 05:52:00,
2013-10-15 02:07:00,53.1,52.0,30.14,NE,43,0.0,1.0,94,0.00,,,0.00,weatherlink.com 1.10,2013-10-15 06:07:00,
2013-10-15 02:22:00,53.3,52.0,30.15,NE,43,0.0,1.0,94,0.00,,,0.00,weatherlink.com 1.10,2013-10-15 06:22:00,
2013-10-15 02:38:00,53.6,52.0,30.15,NE,43,0.0,1.0,93,0.00,,,0.00,weatherlink.com 1.10,2013-10-15 06:38:00,
2013-10-15 02:53:00,53.7,52.0,30.16,NE,43,0.0,0.0,94,0.00,,,0.00,weatherlink.com 1.10,2013-10-15 06:53:00,
2013-10-15 03:08:00,53.7,52.0,30.15,NE,43,0.0,0.0,93,0.00,,,0.00,weatherlink.com 1.10,2013-10-15 07:08:00,
2013-10-15 03:23:00,53.7,52.0,30.14,NE,43,0.0,1.0,94,0.00,,,0.00,weatherlink.com 1.10,2013-10-15 07:23:00,
2013-10-15 03:38:00,53.6,52.0,30.14,NE,43,0.0,1.0,93,0.00,,,0.00,weatherlink.com 1.10,2013-10-15 07:38:00,
2013-10-15 03:53:00,53.5,52.0,30.14,NE,43,0.0,1.0,93,0.00,,,0.00,weatherlink.com 1.10,2013-10-15 07:53:00,
2013-10-15 04:08:00,53.4,52.0,30.13,NE,43,0.0,0.0,93,0.00,,,0.00,weatherlink.com 1.10,2013-10-15 08:08:00,
2013-10-15 04:23:00,53.1,51.0,30.12,NE,43,0.0,1.0,92,0.00,,,0.00,weatherlink.com 1.10,2013-10-15 08:23:00,
2013-10-15 04:38:00,52.8,51.0,30.12,NE,43,0.0,0.0,93,0.00,,,0.00,weatherlink.com 1.10,2013-10-15 08:38:00,
2013-10-15 04:53:00,52.6,51.0,30.12,NE,43,0.0,0.0,94,0.00,,,0.00,weatherlink.com 1.10,2013-10-15 08:53:00,
2013-10-15 05:08:00,52.4,51.0,30.12,NE,43,0.0,0.0,95,0.00,,,0.00,weatherlink.com 1.10,2013-10-15 09:08:00,
2013-10-15 05:23:00,52.2,51.0,30.12,NE,43,0.0,1.0,95,0.00,,,0.00,weatherlink.com 1.10,2013-10-15 09:23:00,
2013-10-15 05:38:00,52.1,51.0,30.12,NE,43,0.0,1.0,95,0.00,,,0.00,weatherlink.com 1.10,2013-10-15 09:38:00,
2013-10-15 05:53:00,52.0,51.0,30.12,NE,43,0.0,0.0,96,0.00,,,0.00,weatherlink.com 1.10,2013-10-15 09:53:00,
2013-10-15 06:08:00,51.9,51.0,30.12,NE,43,0.0,0.0,96,0.00,,,0.00,weatherlink.com 1.10,2013-10-15 10:08:00,
2013-10-15 06:23:00,51.8,51.0,30.13,NE,43,0.0,0.0,96,0.00,,,0.00,weatherlink.com 1.10,2013-10-15 10:23:00,
2013-10-15 06:38:00,51.8,51.0,30.12,NE,43,0.0,0.0,96,0.00,,,0.00,weatherlink.com 1.10,2013-10-15 10:38:00,
2013-10-15 06:53:00,51.7,51.0,30.12,NE,43,0.0,0.0,96,0.00,,,0.00,weatherlink.com 1.10,2013-10-15 10:53:00,
2013-10-15 07:08:00,51.8,51.0,30.13,NE,43,0.0,2.0,96,0.00,,,0.00,weatherlink.com 1.10,2013-10-15 11:08:00,
2013-10-15 07:23:00,51.9,51.0,30.13,NE,43,0.0,0.0,95,0.00,,,0.00,weatherlink.com 1.10,2013-10-15 11:23:00,
2013-10-15 07:38:00,51.9,51.0,30.13,NE,43,0.0,2.0,95,0.00,,,0.00,weatherlink.com 1.10,2013-10-15 11:38:00,
2013-10-15 07:53:00,52.0,51.0,30.13,NE,39,0.0,1.0,95,0.00,,,0.00,weatherlink.com 1.10,2013-10-15 11:53:00,
2013-10-15 08:08:00,51.8,51.0,30.12,SSE,162,1.0,3.0,96,0.00,,,0.00,weatherlink.com 1.10,2013-10-15 12:08:00,
2013-10-15 08:20:00,51.8,51.0,30.12,SSE,165,0.0,2.0,97,0.00,,,0.00,Wunderground v.1.15,2013-10-15 12:20:00,
2013-10-15 08:25:00,51.8,50.7,30.13,SSE,165,0.0,2.0,96,0.00,,,0.00,Wunderground v.1.15,2013-10-15 12:25:00,
2013-10-15 08:30:00,51.8,51.0,30.13,South,169,1.0,1.0,97,0.00,,,0.00,Wunderground v.1.15,2013-10-15 12:30:00,
2013-10-15 08:38:00,51.9,51.0,30.13,South,169,0.0,4.0,97,0.00,,,0.00,weatherlink.com 1.10,2013-10-15 12:38:00,
2013-10-15 08:45:00,52.0,51.2,30.13,South,169,0.0,0.0,97,0.00,,,0.00,Wunderground v.1.15,2013-10-15 12:45:00,
2013-10-15 08:55:00,52.1,51.0,30.13,South,169,0.0,1.0,97,0.00,,,0.00,weatherlink.com 1.10,2013-10-15 12:55:00,
2013-10-15 09:00:00,52.2,51.4,30.13,South,169,0.0,1.0,97,0.00,,,0.00,Wunderground v.1.15,2013-10-15 13:00:00,
2013-10-15 09:09:00,52.2,51.0,30.13,NW,313,0.0,3.0,97,0.00,,,0.00,weatherlink.com 1.10,2013-10-15 13:09:00,
2013-10-15 09:15:00,52.4,51.6,30.13,NW,313,0.0,0.0,97,0.00,,,0.00,Wunderground v.1.15,2013-10-15 13:15:00,
2013-10-15 09:20:00,52.6,51.8,30.13,NW,313,0.0,0.0,97,0.00,,,0.00,Wunderground v.1.15,2013-10-15 13:20:00,
2013-10-15 09:25:00,52.7,51.9,30.13,NW,313,0.0,0.0,97,0.00,,,0.00,Wunderground v.1.15,2013-10-15 13:25:00,
2013-10-15 09:35:00,52.8,52.0,30.13,NW,313,0.0,0.0,97,0.00,,,0.00,Wunderground v.1.15,2013-10-15 13:35:00,
2013-10-15 09:40:00,52.8,51.7,30.13,NW,313,0.0,0.0,96,0.00,,,0.00,Wunderground v.1.15,2013-10-15 13:40:00,
2013-10-15 09:50:00,53.0,51.9,30.13,NW,313,0.0,0.0,96,0.00,,,0.00,Wunderground v.1.15,2013-10-15 13:50:00,
2013-10-15 10:00:00,53.3,52.2,30.13,NW,313,0.0,0.0,96,0.00,,,0.00,Wunderground v.1.15,2013-10-15 14:00:00,
2013-10-15 10:10:00,53.5,52.4,30.13,NW,313,0.0,0.0,96,0.00,,,0.00,Wunderground v.1.15,2013-10-15 14:10:00,
2013-10-15 10:15:00,53.7,52.6,30.13,NW,313,0.0,0.0,96,0.00,,,0.00,Wunderground v.1.15,2013-10-15 14:15:00,
2013-10-15 10:20:00,53.8,52.7,30.13,NW,313,0.0,0.0,96,0.00,,,0.00,Wunderground v.1.15,2013-10-15 14:20:00,
2013-10-15 10:30:00,53.9,52.5,30.13,NW,313,0.0,0.0,95,0.00,,,0.00,Wunderground v.1.15,2013-10-15 14:30:00,
2013-10-15 10:40:00,54.2,53.0,30.13,NW,313,0.0,1.0,95,0.00,,,0.00,weatherlink.com 1.10,2013-10-15 14:40:00,
2013-10-15 10:50:00,54.8,53.7,30.13,NW,313,0.0,0.0,96,0.00,,,0.00,Wunderground v.1.15,2013-10-15 14:50:00,
2013-10-15 10:55:00,54.9,53.5,30.13,NW,313,0.0,0.0,95,0.00,,,0.00,Wunderground v.1.15,2013-10-15 14:55:00,
2013-10-15 11:05:00,55.4,54.0,30.13,NW,313,0.0,0.0,95,0.00,,,0.00,Wunderground v.1.15,2013-10-15 15:05:00,
2013-10-15 11:10:00,55.5,54.0,30.13,NW,313,0.0,1.0,94,0.00,,,0.00,weatherlink.com 1.10,2013-10-15 15:10:00,
2013-10-15 11:15:00,55.5,53.8,30.12,NW,314,0.0,1.0,94,0.00,,,0.00,Wunderground v.1.15,2013-10-15 15:15:00,
2013-10-15 11:25:00,55.8,53.8,30.12,NW,319,1.0,2.0,93,0.00,,,0.00,Wunderground v.1.15,2013-10-15 15:25:00,
2013-10-15 11:30:00,56.0,54.0,30.12,NW,323,1.0,1.0,93,0.00,,,0.00,Wunderground v.1.15,2013-10-15 15:30:00,
2013-10-15 11:40:00,56.1,54.1,30.12,NW,323,1.0,1.0,93,0.00,,,0.00,Wunderground v.1.15,2013-10-15 15:40:00,
2013-10-15 11:50:00,56.7,54.7,30.11,NW,321,1.0,1.0,93,0.00,,,0.00,Wunderground v.1.15,2013-10-15 15:50:00,
2013-10-15 11:56:00,56.9,55.0,30.11,NW,321,0.0,2.0,93,0.00,,,0.00,weatherlink.com 1.10,2013-10-15 15:56:00,
2013-10-15 12:05:00,57.5,55.2,30.11,NW,321,0.0,1.0,92,0.00,,,0.00,Wunderground v.1.15,2013-10-15 16:05:00,
2013-10-15 12:11:00,58.0,56.0,30.11,NNW,338,0.0,2.0,92,0.00,,,0.00,weatherlink.com 1.10,2013-10-15 16:11:00,
2013-10-15 12:20:00,58.6,55.7,30.11,NNW,338,0.0,0.0,90,0.00,,,0.00,Wunderground v.1.15,2013-10-15 16:20:00,
2013-10-15 12:25:00,59.2,56.3,30.11,NW,316,1.0,1.0,90,0.00,,,0.00,Wunderground v.1.15,2013-10-15 16:25:00,
2013-10-15 12:30:00,59.9,56.3,30.11,NW,320,1.0,2.0,88,0.00,,,0.00,Wunderground v.1.15,2013-10-15 16:30:00,
2013-10-15 12:40:00,60.1,56.5,30.10,West,267,1.0,3.0,88,0.00,,,0.00,Wunderground v.1.15,2013-10-15 16:40:00,
2013-10-15 12:45:00,60.2,56.6,30.11,West,268,2.0,3.0,88,0.00,,,0.00,Wunderground v.1.15,2013-10-15 16:45:00,
2013-10-15 12:55:00,60.2,56.3,30.10,West,281,1.0,2.0,87,0.00,,,0.00,Wunderground v.1.15,2013-10-15 16:55:00,
2013-10-15 13:00:00,60.3,56.4,30.09,West,281,1.0,1.0,87,0.00,,,0.00,Wunderground v.1.15,2013-10-15 17:00:00,
2013-10-15 13:10:00,60.3,57.0,30.09,West,274,0.0,1.0,89,0.00,,,0.00,Wunderground v.1.15,2013-10-15 17:10:00,
2013-10-15 13:15:00,60.7,56.8,30.09,WNW,303,1.0,1.0,87,0.00,,,0.00,Wunderground v.1.15,2013-10-15 17:15:00,
2013-10-15 13:20:00,61.1,57.2,30.08,WNW,303,1.0,1.0,87,0.00,,,0.00,Wunderground v.1.15,2013-10-15 17:20:00,
2013-10-15 13:27:00,61.3,57.0,30.08,WNW,288,2.0,4.0,85,0.00,,,0.00,weatherlink.com 1.10,2013-10-15 17:27:00,
2013-10-15 13:35:00,61.6,57.0,30.08,WNW,291,1.0,1.0,85,0.00,,,0.00,Wunderground v.1.15,2013-10-15 17:35:00,
2013-10-15 13:40:00,61.7,57.1,30.08,West,281,1.0,1.0,85,0.00,,,0.00,Wunderground v.1.15,2013-10-15 17:40:00,
2013-10-15 13:45:00,61.9,57.0,30.07,West,281,1.0,2.0,84,0.00,,,0.00,Wunderground v.1.15,2013-10-15 17:45:00,
2013-10-15 13:50:00,62.1,57.2,30.07,WNW,282,1.0,1.0,84,0.00,,,0.00,Wunderground v.1.15,2013-10-15 17:50:00,
2013-10-15 13:57:00,62.3,58.0,30.07,NNW,333,2.0,3.0,86,0.00,,,0.00,weatherlink.com 1.10,2013-10-15 17:57:00,
2013-10-15 14:05:00,62.5,57.9,30.06,NNW,333,1.0,1.0,85,0.00,,,0.00,Wunderground v.1.15,2013-10-15 18:05:00,
2013-10-15 14:10:00,62.7,57.5,30.06,NNW,331,1.0,2.0,83,0.00,,,0.00,Wunderground v.1.15,2013-10-15 18:10:00,
2013-10-15 14:20:00,62.7,58.1,30.06,WNW,282,2.0,2.0,85,0.00,,,0.00,Wunderground v.1.15,2013-10-15 18:20:00,
2013-10-15 14:28:00,62.9,58.0,30.06,WNW,284,0.0,3.0,83,0.00,,,0.00,weatherlink.com 1.10,2013-10-15 18:28:00,
2013-10-15 14:35:00,63.3,57.7,30.06,NW,323,1.0,3.0,82,0.00,,,0.00,Wunderground v.1.15,2013-10-15 18:35:00,
2013-10-15 14:40:00,63.2,57.6,30.06,West,274,1.0,1.0,82,0.00,,,0.00,Wunderground v.1.15,2013-10-15 18:40:00,
2013-10-15 14:45:00,63.2,57.9,30.05,West,274,1.0,1.0,83,0.00,,,0.00,Wunderground v.1.15,2013-10-15 18:45:00,
2013-10-15 14:55:00,63.8,59.2,30.05,West,281,1.0,2.0,85,0.00,,,0.00,Wunderground v.1.15,2013-10-15 18:55:00,
2013-10-15 15:00:00,64.4,58.4,30.05,West,281,1.0,2.0,81,0.00,,,0.00,Wunderground v.1.15,2013-10-15 19:00:00,
2013-10-15 15:10:00,64.9,58.9,30.04,NW,320,1.0,1.0,81,0.00,,,0.00,Wunderground v.1.15,2013-10-15 19:10:00,
2013-10-15 15:15:00,65.1,59.1,30.04,WNW,299,0.0,1.0,81,0.00,,,0.00,Wunderground v.1.15,2013-10-15 19:15:00,
2013-10-15 15:25:00,65.6,59.6,30.03,WNW,299,0.0,1.0,81,0.00,,,0.00,Wunderground v.1.15,2013-10-15 19:25:00,
2013-10-15 15:30:00,65.3,58.6,30.03,WNW,300,1.0,1.0,79,0.00,,,0.00,Wunderground v.1.15,2013-10-15 19:30:00,
2013-10-15 15:40:00,64.9,58.2,30.03,WNW,294,2.0,2.0,79,0.00,,,0.00,Wunderground v.1.15,2013-10-15 19:40:00,
2013-10-15 15:45:00,64.4,58.4,30.04,WSW,242,2.0,3.0,81,0.00,,,0.00,Wunderground v.1.15,2013-10-15 19:45:00,
2013-10-15 15:55:00,64.2,58.9,30.04,WNW,292,1.0,1.0,83,0.00,,,0.00,Wunderground v.1.15,2013-10-15 19:55:00,
2013-10-15 16:00:00,64.0,58.7,30.03,WNW,289,1.0,1.0,83,0.00,,,0.00,Wunderground v.1.15,2013-10-15 20:00:00,
2013-10-15 16:10:00,63.6,58.3,30.03,WNW,298,1.0,1.0,83,0.00,,,0.00,Wunderground v.1.15,2013-10-15 20:10:00,
2013-10-15 16:15:00,63.3,58.0,30.03,West,279,1.0,1.0,83,0.00,,,0.00,Wunderground v.1.15,2013-10-15 20:15:00,
2013-10-15 16:25:00,62.3,57.1,30.04,WSW,253,1.0,4.0,83,0.00,,,0.00,Wunderground v.1.15,2013-10-15 20:25:00,
2013-10-15 16:30:00,61.8,56.9,30.04,West,259,2.0,2.0,84,0.00,,,0.00,Wunderground v.1.15,2013-10-15 20:30:00,
2013-10-15 16:40:00,62.0,57.8,30.03,WSW,258,0.0,0.0,86,0.00,,,0.00,Wunderground v.1.15,2013-10-15 20:40:00,
2013-10-15 16:46:00,62.2,57.0,30.04,WSW,246,0.0,3.0,84,0.00,,,0.00,weatherlink.com 1.10,2013-10-15 20:46:00,
2013-10-15 16:55:00,61.6,57.4,30.04,WSW,246,0.0,2.0,86,0.00,,,0.00,Wunderground v.1.15,2013-10-15 20:55:00,
2013-10-15 17:00:00,61.3,57.1,30.03,WSW,244,0.0,0.0,86,0.00,,,0.00,Wunderground v.1.15,2013-10-15 21:00:00,
2013-10-15 17:10:00,61.0,57.1,30.03,WSW,244,0.0,0.0,87,0.00,,,0.00,Wunderground v.1.15,2013-10-15 21:10:00,
2013-10-15 17:20:00,60.8,56.9,30.03,WSW,244,0.0,0.0,87,0.00,,,0.00,Wunderground v.1.15,2013-10-15 21:20:00,
2013-10-15 17:30:00,60.5,57.0,30.04,WSW,244,0.0,2.0,88,0.00,,,0.00,weatherlink.com 1.10,2013-10-15 21:30:00,
2013-10-15 17:35:00,60.4,56.8,30.03,WSW,244,0.0,0.0,88,0.00,,,0.00,Wunderground v.1.15,2013-10-15 21:35:00,
2013-10-15 17:44:00,60.5,57.0,30.03,WSW,245,0.0,1.0,89,0.00,,,0.00,weatherlink.com 1.10,2013-10-15 21:44:00,
2013-10-15 17:50:00,60.5,57.2,30.03,WSW,245,0.0,0.0,89,0.00,,,0.00,Wunderground v.1.15,2013-10-15 21:50:00,
2013-10-15 18:00:00,60.2,57.0,30.03,WSW,245,0.0,1.0,90,0.00,,,0.00,weatherlink.com 1.10,2013-10-15 22:00:00,
2013-10-15 18:05:00,60.2,56.9,30.03,WSW,245,0.0,0.0,89,0.00,,,0.00,Wunderground v.1.15,2013-10-15 22:05:00,
2013-10-15 18:15:00,59.8,56.9,30.03,WSW,245,0.0,0.0,90,0.00,,,0.00,Wunderground v.1.15,2013-10-15 22:15:00,
2013-10-15 18:25:00,59.3,56.7,30.03,WSW,245,0.0,0.0,91,0.00,,,0.00,Wunderground v.1.15,2013-10-15 22:25:00,
2013-10-15 18:30:00,59.1,56.8,30.03,WSW,245,0.0,0.0,92,0.00,,,0.00,Wunderground v.1.15,2013-10-15 22:30:00,
2013-10-15 18:40:00,58.7,56.1,30.04,WSW,245,0.0,0.0,91,0.00,,,0.00,Wunderground v.1.15,2013-10-15 22:40:00,
2013-10-15 18:45:00,58.5,55.9,30.04,WSW,245,0.0,0.0,91,0.00,,,0.00,Wunderground v.1.15,2013-10-15 22:45:00,
2013-10-15 18:50:00,58.4,55.5,30.04,WSW,245,0.0,0.0,90,0.00,,,0.00,Wunderground v.1.15,2013-10-15 22:50:00,
2013-10-15 19:00:00,58.2,55.9,30.04,WSW,245,0.0,0.0,92,0.00,,,0.00,Wunderground v.1.15,2013-10-15 23:00:00,
2013-10-15 19:10:00,57.6,55.6,30.04,WSW,245,0.0,0.0,93,0.00,,,0.00,Wunderground v.1.15,2013-10-15 23:10:00,
2013-10-15 19:15:00,57.4,55.4,30.04,WSW,245,0.0,0.0,93,0.00,,,0.00,Wunderground v.1.15,2013-10-15 23:15:00,
2013-10-15 19:20:00,57.1,55.4,30.04,WSW,245,0.0,1.0,94,0.00,,,0.00,Wunderground v.1.15,2013-10-15 23:20:00,
2013-10-15 19:30:00,56.8,55.1,30.04,WSW,245,0.0,1.0,94,0.00,,,0.00,Wunderground v.1.15,2013-10-15 23:30:00,
2013-10-15 19:40:00,56.3,54.9,30.05,WSW,245,0.0,0.0,95,0.00,,,0.00,Wunderground v.1.15,2013-10-15 23:40:00,
2013-10-15 19:46:00,56.2,55.0,30.05,WSW,245,0.0,1.0,96,0.00,,,0.00,weatherlink.com 1.10,2013-10-15 23:46:00,
2013-10-15 20:02:00,55.8,55.0,30.05,WSW,245,0.0,2.0,96,0.00,,,0.00,weatherlink.com 1.10,2013-10-16 00:02:00,
2013-10-15 20:16:00,55.5,54.0,30.06,WSW,245,1.0,2.0,96,0.00,,,0.00,weatherlink.com 1.10,2013-10-16 00:16:00,
2013-10-15 20:31:00,55.2,54.0,30.06,WSW,245,0.0,2.0,97,0.00,,,0.00,weatherlink.com 1.10,2013-10-16 00:31:00,
2013-10-15 20:46:00,55.0,54.0,30.06,WSW,245,0.0,2.0,97,0.00,,,0.00,weatherlink.com 1.10,2013-10-16 00:46:00,
2013-10-15 21:01:00,54.9,54.0,30.06,WSW,245,0.0,0.0,98,0.00,,,0.00,weatherlink.com 1.10,2013-10-16 01:01:00,
2013-10-15 21:16:00,54.5,54.0,30.07,WSW,245,0.0,2.0,98,0.00,,,0.00,weatherlink.com 1.10,2013-10-16 01:16:00,
2013-10-15 21:31:00,54.5,54.0,30.07,WSW,245,0.0,2.0,98,0.00,,,0.00,weatherlink.com 1.10,2013-10-16 01:31:00,
2013-10-15 21:46:00,54.3,54.0,30.08,WSW,245,0.0,1.0,98,0.00,,,0.00,weatherlink.com 1.10,2013-10-16 01:46:00,
2013-10-15 22:01:00,54.1,54.0,30.08,WSW,245,0.0,2.0,98,0.00,,,0.00,weatherlink.com 1.10,2013-10-16 02:01:00,
2013-10-15 22:16:00,54.1,54.0,30.08,WSW,245,0.0,0.0,98,0.00,,,0.00,weatherlink.com 1.10,2013-10-16 02:16:00,
2013-10-15 22:31:00,54.0,54.0,30.09,WSW,245,1.0,2.0,98,0.00,,,0.00,weatherlink.com 1.10,2013-10-16 02:31:00,
2013-10-15 22:46:00,53.9,53.0,30.09,WSW,245,0.0,2.0,98,0.00,,,0.00,weatherlink.com 1.10,2013-10-16 02:46:00,
2013-10-15 23:01:00,53.7,53.0,30.07,WSW,245,0.0,1.0,98,0.00,,,0.00,weatherlink.com 1.10,2013-10-16 03:01:00,
2013-10-15 23:16:00,53.6,53.0,30.09,WSW,245,0.0,0.0,98,0.00,,,0.00,weatherlink.com 1.10,2013-10-16 03:16:00,
2013-10-15 23:31:00,53.6,53.0,30.07,WSW,245,0.0,0.0,98,0.00,,,0.00,weatherlink.com 1.10,2013-10-16 03:31:00,
2013-10-15 23:46:00,53.7,53.0,30.07,WSW,245,0.0,1.0,98,0.00,,,0.00,weatherlink.com 1.10,2013-10-16 03:46:00,